Date,TemperatureHighF,TemperatureAvgF,TemperatureLowF,DewpointHighF,DewpointAvgF,DewpointLowF,HumidityHigh,HumidityAvg,HumidityLow,PressureMaxIn,PressureMinIn,WindSpeedMaxMPH,WindSpeedAvgMPH,GustSpeedMaxMPH,PrecipitationSumIn
2013-1-1,33,27,14,24,15,1,77,62,48,29.65,29.43,6,2,25,0.00
2013-1-2,27,16,8,12,5,-2,71,61,52,29.84,29.61,5,2,20,0.00
2013-1-3,19,10,-2,13,-1,-12,77,61,44,29.85,29.69,3,1,13,0.00
2013-1-4,36,26,18,23,18,12,79,69,56,29.67,29.53,4,1,15,0.00
2013-1-5,37,30,22,22,19,15,76,63,47,29.96,29.58,5,2,22,0.00
2013-1-6,36,29,22,27,22,17,85,78,69,29.90,29.65,2,0,10,0.02
2013-1-7,35,29,19,28,20,13,84,71,57,30.08,29.68,4,1,14,0.00
2013-1-8,40,27,18,26,19,12,84,73,54,30.07,29.98,3,1,10,0.01
2013-1-9,38,30,22,28,23,18,85,76,59,30.08,29.73,5,1,22,0.00
2013-1-10,39,34,27,27,23,20,77,63,51,30.24,29.79,7,4,35,0.00
2013-1-11,35,30,25,30,24,19,91,79,65,30.25,29.90,3,1,7,0.22
2013-1-12,39,35,33,36,33,30,94,91,88,29.90,29.84,1,0,4,0.03
2013-1-13,40,36,34,38,35,33,94,93,91,29.86,29.71,3,1,7,0.01
2013-1-14,42,38,33,41,33,25,95,83,61,30.00,29.63,5,2,15,0.02
2013-1-15,38,32,28,25,23,21,78,68,54,30.05,29.93,3,2,10,0.00
2013-1-16,33,31,29,29,27,22,90,84,71,29.95,29.54,0,0,2,0.01
2013-1-17,38,30,24,31,23,11,89,76,57,29.81,29.55,3,1,17,0.01
2013-1-18,24,18,12,10,1,-6,66,49,35,30.11,29.75,5,2,20,0.00
2013-1-19,40,28,16,25,18,7,75,64,48,30.02,29.57,4,2,14,0.01
2013-1-20,41,32,24,32,22,9,83,66,45,29.67,29.30,5,3,20,0.11
2013-1-21,27,21,15,17,10,5,81,63,43,29.76,29.48,2,1,14,0.00
2013-1-22,22,15,8,16,2,-5,79,58,36,29.77,29.46,5,2,20,0.00
2013-1-23,13,6,1,-5,-10,-14,59,48,35,29.82,29.75,6,2,25,0.00
2013-1-24,13,6,-3,-8,-12,-14,61,45,33,29.93,29.78,6,3,21,0.00
2013-1-25,21,12,4,8,-5,-13,73,46,27,30.01,29.75,5,1,16,0.00
2013-1-26,19,13,6,6,0,-4,73,58,42,29.95,29.71,5,2,19,0.00
2013-1-27,23,14,7,3,0,-3,65,53,33,30.15,29.95,4,1,14,0.00
2013-1-28,24,20,12,20,12,1,85,71,56,30.14,29.70,3,1,6,0.00
2013-1-29,35,29,24,30,24,20,91,83,71,29.87,29.71,2,1,6,0.25
2013-1-30,42,36,32,41,35,30,95,93,91,29.82,29.14,3,1,10,0.34
2013-1-31,50,38,26,48,32,15,96,80,58,29.31,28.70,7,4,29,0.93
2013-2-1,29,24,19,17,9,4,73,53,42,29.77,29.32,5,3,23,0.00
2013-2-2,28,21,12,14,6,-2,70,54,40,29.91,29.73,4,2,13,0.00
2013-2-3,28,22,16,14,12,9,75,64,50,29.74,29.45,2,1,7,0.00
2013-2-4,27,21,16,12,9,6,72,59,41,29.63,29.44,6,2,22,0.00
2013-2-5,29,23,16,19,12,8,80,65,50,29.70,29.61,3,1,8,0.00
2013-2-6,33,25,19,21,14,2,82,64,44,30.00,29.60,5,2,19,0.00
2013-2-7,28,21,13,12,6,1,67,52,38,30.20,30.01,3,1,10,0.00
2013-2-8,28,23,18,22,15,6,84,71,46,30.12,29.45,8,4,27,0.00
2013-2-9,24,19,14,17,8,-6,86,64,35,29.93,29.42,9,7,26,0.00
2013-2-10,30,18,5,10,2,-6,65,50,34,30.13,29.94,6,1,16,0.00
2013-2-11,34,28,18,32,23,7,92,83,61,30.01,29.37,2,1,10,0.16
2013-2-12,38,34,32,31,27,23,91,73,63,29.60,29.37,5,2,19,0.10
2013-2-13,40,33,30,24,22,22,77,66,52,29.58,29.49,4,1,14,0.00
2013-2-14,39,31,23,23,20,16,75,64,50,29.67,29.43,3,1,10,0.00
2013-2-15,45,33,24,31,24,18,85,72,48,29.68,29.60,4,1,12,0.00
2013-2-16,38,32,26,27,20,8,85,64,47,29.68,29.48,6,2,16,0.04
2013-2-17,25,20,12,7,1,-4,48,42,33,29.47,29.22,8,6,30,0.00
2013-2-18,25,16,9,2,-3,-6,50,43,28,29.84,29.48,8,4,27,0.00
2013-2-19,39,28,16,32,19,2,91,69,51,29.86,29.31,4,1,11,0.12
2013-2-20,34,28,22,31,16,10,91,63,43,29.52,29.30,8,4,32,0.00
2013-2-21,26,23,20,14,10,8,67,58,48,29.96,29.49,7,5,26,0.00
2013-2-22,40,29,21,23,18,12,75,65,46,30.09,29.96,6,3,17,0.00
2013-2-23,33,31,29,30,27,23,90,83,75,30.00,29.62,3,1,7,0.06
2013-2-24,38,34,31,33,30,27,91,88,81,29.61,29.45,3,2,10,0.32
2013-2-25,39,33,28,29,26,23,86,78,66,29.94,29.63,4,2,12,0.05
2013-2-26,39,34,28,30,27,24,88,78,66,30.02,29.85,4,2,9,0.01
2013-2-27,36,34,32,34,31,27,92,90,77,29.84,29.35,4,2,14,0.67
2013-2-28,40,34,32,35,32,30,93,90,81,29.34,29.27,3,1,6,0.40
2013-3-1,40,35,31,31,28,23,93,76,59,29.43,29.27,4,2,14,0.23
2013-3-2,39,34,30,27,24,21,77,69,61,29.43,29.36,5,3,14,0.06
2013-3-3,38,30,27,27,22,19,77,70,59,29.39,29.32,5,3,17,0.01
2013-3-4,36,29,24,23,19,16,73,67,56,29.52,29.37,7,4,25,0.00
2013-3-5,42,34,26,28,24,19,75,66,54,29.78,29.52,5,3,14,0.13
2013-3-6,37,34,32,31,28,25,86,78,70,29.82,29.74,6,3,20,0.05
2013-3-7,37,32,29,29,27,23,89,80,64,29.80,29.74,7,5,21,0.04
2013-3-8,38,34,30,30,26,23,89,76,61,29.91,29.69,6,5,20,0.11
2013-3-9,51,39,30,25,21,14,72,51,25,30.04,29.89,6,3,14,0.00
2013-3-10,46,35,25,30,26,20,79,68,50,30.10,29.97,4,2,10,0.00
2013-3-11,44,38,33,36,32,29,92,80,69,29.99,29.83,5,3,11,0.00
2013-3-12,43,39,36,42,38,35,96,95,92,29.83,29.42,5,2,19,1.28
2013-3-13,44,37,31,34,27,23,94,71,45,29.53,29.47,5,2,20,0.00
2013-3-14,33,27,23,23,14,8,73,58,43,29.56,29.48,6,3,23,0.00
2013-3-15,40,28,19,28,15,5,87,60,36,29.58,29.36,4,2,15,0.00
2013-3-16,39,30,20,22,16,11,76,55,37,29.58,29.40,4,2,16,0.03
2013-3-17,35,27,19,16,10,6,68,51,30,30.00,29.58,7,3,21,0.00
2013-3-18,38,26,13,22,8,-1,78,49,27,30.14,29.89,4,2,10,0.00
2013-3-19,34,30,27,30,26,21,89,85,80,29.90,29.40,3,1,9,0.00
2013-3-20,38,28,18,25,19,14,85,71,52,29.51,29.42,4,2,20,0.00
2013-3-21,40,28,17,18,14,10,77,59,35,29.52,29.32,4,2,12,0.07
2013-3-22,39,28,20,25,16,10,70,62,49,29.49,29.35,5,3,21,0.00
2013-3-23,40,32,25,23,20,18,81,62,46,29.54,29.42,6,3,24,0.03
2013-3-24,45,34,25,25,22,18,76,60,43,29.57,29.45,5,3,17,0.24
2013-3-25,42,35,28,27,23,19,74,63,49,29.50,29.24,5,2,15,0.00
2013-3-26,45,36,30,28,26,21,80,65,44,29.53,29.30,4,2,14,0.00
2013-3-27,48,38,28,31,26,20,77,63,44,29.62,29.51,6,3,19,0.00
2013-3-28,47,39,33,33,30,27,87,72,55,29.77,29.61,4,2,13,0.00
2013-3-29,50,41,35,33,30,28,84,68,46,29.80,29.73,5,3,15,0.00
2013-3-30,53,40,32,30,26,23,83,60,33,29.82,29.75,5,2,15,0.00
2013-3-31,53,40,29,36,28,22,94,64,37,29.83,29.45,6,2,20,0.14
2013-4-1,54,39,30,44,32,14,95,76,47,29.53,29.27,7,3,25,0.20
2013-4-2,38,31,26,22,16,12,78,56,36,29.68,29.52,7,4,26,0.01
2013-4-3,44,32,24,22,15,12,76,50,29,29.90,29.66,7,4,27,0.00
2013-4-4,54,37,24,26,19,13,68,49,28,30.02,29.74,5,2,19,0.00
2013-4-5,56,41,30,28,24,19,84,56,27,29.74,29.43,6,2,23,0.00
2013-4-6,50,35,27,26,14,7,71,43,23,30.02,29.63,7,3,22,0.00
2013-4-7,54,38,27,40,27,16,89,64,40,30.01,29.68,8,2,21,0.01
2013-4-8,65,46,34,37,34,31,93,68,34,29.80,29.69,4,2,11,0.00
2013-4-9,65,52,41,46,41,34,92,68,44,29.76,29.60,6,2,24,0.04
2013-4-10,60,52,44,51,46,40,92,82,66,29.72,29.58,3,1,9,0.29
2013-4-11,52,45,36,46,37,29,91,75,55,29.86,29.59,5,3,12,0.07
2013-4-12,36,34,33,32,31,30,90,87,81,29.86,29.54,4,2,14,0.35
2013-4-13,51,41,33,39,34,30,90,78,55,29.66,29.52,4,2,11,0.39
2013-4-14,53,42,34,35,30,24,87,64,40,29.94,29.64,6,2,19,0.00
2013-4-15,60,44,30,36,30,24,81,60,36,30.09,29.94,5,2,12,0.00
2013-4-16,66,49,36,53,41,30,91,75,50,30.08,29.80,7,3,18,0.11
2013-4-17,68,52,44,49,36,27,93,57,30,30.05,29.80,5,3,17,0.01
2013-4-18,61,49,35,42,32,26,76,54,33,30.13,29.85,7,4,18,0.00
2013-4-19,69,57,48,61,53,41,94,86,74,29.85,29.35,5,3,23,0.27
2013-4-20,60,49,37,58,36,22,93,64,33,29.99,29.39,5,3,18,0.45
2013-4-21,57,40,30,23,19,14,58,44,26,30.36,29.98,5,3,16,0.00
2013-4-22,58,43,30,29,23,16,69,47,27,30.43,30.29,6,3,16,0.00
2013-4-23,42,38,35,34,30,25,83,73,66,30.29,29.90,4,3,13,0.00
2013-4-24,75,53,39,47,42,34,87,69,35,29.90,29.51,5,4,18,0.00
2013-4-25,63,50,41,47,32,21,90,55,27,29.99,29.54,6,4,19,0.06
2013-4-26,62,48,34,33,29,25,71,49,31,30.14,29.99,4,2,12,0.00
2013-4-27,68,52,37,36,32,26,75,49,29,30.14,30.00,4,2,10,0.00
2013-4-28,73,54,38,41,36,33,85,54,27,30.06,29.91,4,2,11,0.00
2013-4-29,68,54,45,43,37,32,69,54,38,29.99,29.93,6,2,14,0.00
2013-4-30,73,58,48,40,35,30,72,44,23,30.07,29.97,4,1,10,0.00
2013-5-1,74,56,39,43,33,28,68,45,22,30.20,30.07,4,2,10,0.00
2013-5-2,80,60,43,45,40,27,81,51,24,30.19,30.02,5,2,10,0.00
2013-5-3,70,55,42,44,37,27,70,51,34,30.25,30.09,4,2,11,0.00
2013-5-4,74,56,42,45,38,29,85,55,24,30.12,29.96,4,2,14,0.00
2013-5-5,70,52,36,40,34,29,76,53,29,30.05,29.92,3,1,8,0.00
2013-5-6,72,53,37,46,39,33,88,63,27,30.01,29.86,3,1,8,0.00
2013-5-7,80,61,44,55,47,40,88,64,26,29.91,29.82,3,1,9,0.00
2013-5-8,72,61,53,60,55,50,93,83,60,29.92,29.77,4,2,14,0.56
2013-5-9,70,60,55,59,55,52,93,85,63,29.79,29.61,2,0,7,0.15
2013-5-10,77,62,49,62,55,46,93,79,57,29.72,29.64,3,1,8,0.01
2013-5-11,63,60,57,62,58,54,96,93,82,29.64,29.42,2,1,7,1.00
2013-5-12,67,55,44,58,47,34,97,75,49,29.57,29.35,4,1,20,0.06
2013-5-13,56,47,40,34,31,29,75,57,38,29.79,29.56,4,1,17,0.00
2013-5-14,56,47,37,37,32,28,75,57,35,29.80,29.74,3,1,12,0.00
2013-5-15,58,47,34,50,40,29,95,79,54,29.79,29.41,3,1,14,0.09
2013-5-16,78,61,47,50,45,41,95,61,32,29.55,29.41,4,2,23,0.00
2013-5-17,70,57,47,42,39,34,77,53,33,29.95,29.54,4,2,19,0.00
2013-5-18,72,58,45,50,44,38,78,61,37,30.04,29.94,2,1,7,0.00
2013-5-19,63,54,46,55,50,42,93,84,69,30.07,29.93,2,1,7,0.14
2013-5-20,78,64,54,67,59,52,94,85,64,29.94,29.69,2,1,8,0.00
2013-5-21,81,67,58,72,63,54,93,86,72,29.73,29.56,2,1,5,0.13
2013-5-22,72,62,53,66,59,51,95,90,81,29.72,29.58,3,1,11,1.24
2013-5-23,70,66,64,67,64,62,94,93,89,29.62,29.51,2,1,10,1.31
2013-5-24,65,58,45,62,54,42,95,87,75,29.62,29.39,3,2,14,0.17
2013-5-25,47,44,41,43,40,36,91,87,84,29.61,29.53,4,3,18,0.65
2013-5-26,55,47,40,43,39,36,88,75,63,29.84,29.52,4,2,18,0.03
2013-5-27,72,54,40,46,41,35,87,64,35,29.90,29.83,3,1,15,0.00
2013-5-28,72,58,45,54,45,39,80,64,42,29.97,29.88,2,1,6,0.00
2013-5-29,65,60,56,62,57,53,93,90,83,29.90,29.70,3,0,18,0.55
2013-5-30,81,68,58,71,64,56,94,86,67,29.85,29.79,2,0,13,0.00
2013-5-31,88,74,62,74,65,60,95,76,48,29.86,29.70,2,0,8,0.00
2013-6-1,91,75,63,73,66,60,92,75,47,29.74,29.61,2,1,8,0.00
2013-6-2,88,74,66,73,68,63,92,81,60,29.64,29.47,3,1,10,0.07
2013-6-3,78,67,55,66,61,46,95,82,59,29.61,29.54,3,1,15,0.22
2013-6-4,71,58,46,52,45,38,79,63,47,29.84,29.61,3,1,13,0.00
2013-6-5,75,61,49,56,49,44,85,67,42,29.94,29.83,2,1,6,0.00
2013-6-6,72,60,51,56,52,47,87,74,57,29.92,29.82,2,0,7,0.19
2013-6-7,57,53,52,54,51,50,94,91,88,29.83,29.57,2,1,9,1.91
2013-6-8,75,60,50,64,56,49,94,86,66,29.76,29.42,3,2,14,0.64
2013-6-9,77,64,54,61,56,52,93,78,55,29.92,29.75,2,1,10,0.00
2013-6-10,66,60,54,62,57,51,95,90,81,29.93,29.72,2,0,4,1.19
2013-6-11,63,59,56,59,57,54,96,93,85,29.73,29.33,2,0,7,1.09
2013-6-12,69,61,55,57,54,52,96,79,58,29.58,29.33,5,2,19,0.00
2013-6-13,57,54,50,54,51,48,94,91,85,29.58,29.43,2,1,9,1.52
2013-6-14,72,58,50,60,53,48,94,84,49,29.56,29.41,2,1,10,0.45
2013-6-15,78,63,53,55,52,49,93,69,41,29.70,29.56,3,1,12,0.00
2013-6-16,70,61,51,62,55,45,85,80,72,29.70,29.45,2,0,7,0.00
2013-6-17,84,67,59,68,60,56,93,80,50,29.65,29.53,3,1,23,0.05
2013-6-18,68,60,56,63,58,53,94,91,82,29.68,29.63,2,0,8,0.53
2013-6-19,74,61,52,54,50,44,92,70,46,29.89,29.66,2,1,10,0.00
2013-6-20,80,62,48,58,51,43,87,69,38,30.01,29.89,2,1,8,0.00
2013-6-21,83,66,54,68,58,52,91,76,51,30.00,29.94,2,0,9,0.00
2013-6-22,85,70,58,67,62,57,94,78,46,29.97,29.84,2,0,12,0.00
2013-6-23,89,74,62,75,66,58,89,77,62,29.90,29.75,2,1,8,0.00
2013-6-24,90,74,66,75,69,64,97,84,57,29.79,29.66,3,1,23,0.05
2013-6-25,87,74,63,75,68,62,98,84,60,29.71,29.50,2,0,11,0.00
2013-6-26,81,72,67,70,68,65,96,86,69,29.58,29.50,2,0,9,0.00
2013-6-27,81,71,65,73,68,64,97,90,72,29.59,29.46,2,0,5,0.03
2013-6-28,83,72,65,76,69,64,100,92,77,29.46,29.21,3,1,9,2.28
2013-6-29,82,72,67,74,69,66,98,90,74,29.45,29.24,2,0,8,0.01
2013-6-30,83,72,65,77,70,64,97,91,73,29.67,29.45,2,1,8,0.12
2013-7-1,74,71,69,73,70,69,98,98,94,29.80,29.67,1,0,7,0.45
2013-7-2,80,73,70,76,72,69,99,95,85,29.90,29.80,2,1,7,0.02
2013-7-3,86,76,70,76,72,70,99,89,65,29.95,29.89,2,1,10,0.01
2013-7-4,89,77,70,77,72,69,98,86,67,29.97,29.85,2,0,7,0.00
2013-7-5,91,79,70,81,73,69,96,83,64,29.92,29.80,2,0,7,0.00
2013-7-6,88,77,71,74,71,68,92,82,60,29.85,29.76,2,1,10,0.00
2013-7-7,71,69,67,68,66,65,93,92,90,29.80,29.77,1,0,3,0.00
2013-7-8,86,75,69,74,70,67,96,84,62,29.78,29.67,2,0,7,0.00
2013-7-9,78,72,70,73,70,68,96,92,83,29.84,29.77,1,0,6,0.07
2013-7-10,80,73,70,76,71,68,97,94,88,29.80,29.54,2,1,10,0.61
2013-7-11,77,72,68,73,69,63,97,90,75,29.71,29.52,1,0,6,0.01
2013-7-12,81,70,65,68,62,58,84,76,60,29.94,29.70,2,1,9,0.00
2013-7-13,67,64,62,61,59,57,89,81,75,30.03,29.93,1,1,6,0.00
2013-7-16,89,78,68,72,69,65,90,75,53,29.94,29.88,2,1,12,0.00
2013-7-17,89,77,68,77,71,65,91,81,66,29.95,29.78,1,0,5,0.00
2013-7-18,91,80,73,76,72,70,93,79,59,29.79,29.70,2,0,8,0.00
2013-7-19,95,81,71,78,73,69,92,78,55,29.71,29.49,3,1,14,0.00
2013-7-20,85,78,70,75,69,64,90,76,69,29.56,29.44,2,1,13,0.00
2013-7-21,83,73,64,69,65,61,90,77,59,29.73,29.57,2,1,8,0.00
2013-7-22,84,72,64,73,66,61,97,83,64,29.76,29.61,2,1,6,0.61
2013-7-23,78,71,67,74,69,66,98,95,86,29.61,29.30,1,0,7,3.65
2013-7-24,78,70,62,68,64,56,97,82,64,29.72,29.35,3,1,11,0.00
2013-7-25,70,62,54,62,54,47,87,76,59,29.83,29.70,2,1,11,0.00
2013-7-26,73,65,61,65,60,57,90,84,72,29.81,29.73,2,1,7,0.02
2013-7-27,81,67,56,69,62,54,96,83,65,29.80,29.72,2,0,6,0.00
2013-7-28,80,70,62,70,66,59,97,87,68,29.75,29.69,2,0,5,0.00
2013-7-29,68,67,67,66,66,66,97,96,95,29.74,29.72,0,0,2,0.00
2013-9-23,52,48,46,46,43,42,87,85,80,29.77,29.70,0,0,2,0.00
2013-9-24,59,48,40,46,41,36,89,77,61,29.77,29.58,3,1,13,0.00
2013-10-2,73,61,52,62,56,50,95,83,68,29.70,29.62,3,1,12,0.00
2013-10-3,69,60,51,58,52,46,86,75,58,29.85,29.71,3,1,10,0.00
2013-10-4,60,56,54,59,55,51,98,94,86,29.83,29.79,2,0,4,0.44
2013-10-5,66,60,56,61,58,56,100,93,78,29.85,29.80,1,0,3,0.23
2013-10-6,59,56,53,58,55,52,98,97,94,29.93,29.83,2,0,6,0.65
2013-10-7,67,58,53,67,57,52,100,98,93,29.86,29.49,4,1,21,0.13
2013-10-8,59,51,44,51,45,42,95,81,56,30.10,29.66,4,1,13,0.01
2013-10-9,57,49,41,48,43,37,92,80,65,30.21,30.09,3,2,10,0.00
2013-10-10,55,48,41,48,44,39,96,87,75,30.10,29.92,2,1,5,0.00
2013-10-11,64,54,45,53,47,43,93,77,51,29.93,29.83,2,2,7,0.00
2013-10-12,59,54,49,54,50,45,94,86,77,30.12,29.90,3,2,12,0.00
2013-10-13,60,53,48,52,49,45,92,85,72,30.17,30.10,2,1,6,0.00
2013-10-14,61,53,43,53,49,41,92,86,75,30.12,29.97,2,1,8,0.00
2013-10-15,66,58,52,58,54,51,97,87,73,30.00,29.90,2,1,6,0.00
2013-10-16,59,53,48,53,50,47,96,89,74,29.91,29.64,2,1,7,0.00
2013-10-17,67,58,51,57,53,49,97,85,64,29.66,29.44,3,1,11,0.04
2013-10-18,62,56,45,59,50,41,99,81,61,29.66,29.35,4,2,18,0.15
2013-10-19,62,50,42,49,44,40,91,80,61,29.70,29.48,4,1,11,0.01
2013-10-20,56,48,41,49,41,37,97,78,51,29.76,29.44,4,2,17,0.01
2013-10-21,61,49,39,47,41,36,89,76,56,29.83,29.71,3,1,10,0.00
2013-10-22,58,48,43,54,44,36,95,86,73,29.72,29.46,3,2,11,0.01
2013-10-23,50,44,36,38,35,31,83,71,53,29.54,29.33,3,1,8,0.00
2013-10-24,49,42,35,36,31,28,86,68,44,29.63,29.40,5,2,18,0.00
2013-10-25,47,39,32,34,30,28,90,72,50,29.87,29.62,5,2,15,0.00
2013-10-26,50,42,33,34,31,29,87,68,44,29.87,29.58,4,2,15,0.00
2013-10-27,50,44,36,35,33,29,78,65,47,29.79,29.53,5,2,19,0.00
2013-10-28,52,42,34,37,32,24,85,68,50,30.07,29.78,4,2,16,0.00
2013-10-29,44,36,31,25,23,21,74,60,41,30.17,30.06,3,2,9,0.00
2013-10-30,49,38,32,38,32,23,87,77,65,30.08,29.92,2,1,6,0.00
2013-10-31,54,44,35,53,42,32,96,92,87,29.96,29.51,3,1,10,0.42
2013-11-1,61,56,49,59,53,44,97,90,76,29.53,29.18,3,2,14,0.21
2013-11-2,59,49,41,48,43,38,90,81,64,29.49,29.34,2,1,7,0.00
2013-11-3,46,39,30,42,27,15,85,62,49,30.14,29.47,5,3,15,0.00
2013-11-4,38,31,27,20,16,13,72,55,40,30.38,30.12,4,2,14,0.00
2013-11-5,42,34,26,34,26,19,83,71,57,30.40,30.20,4,1,10,0.00
2013-11-6,55,46,38,44,40,34,89,79,61,30.21,29.75,5,2,13,0.00
2013-11-7,57,47,38,54,42,28,94,83,63,29.76,29.45,5,2,13,0.10
2013-11-8,43,36,30,34,27,22,88,70,54,29.82,29.55,6,2,21,0.01
2013-11-9,41,35,28,29,25,21,79,68,56,29.93,29.71,4,1,12,0.00
2013-11-10,47,40,36,37,33,28,89,76,61,29.73,29.47,6,2,23,0.02
2013-11-11,47,40,34,31,28,25,73,61,51,29.82,29.60,6,2,21,0.00
2013-11-12,41,32,25,32,20,12,77,61,52,29.92,29.61,7,4,25,0.00
2013-11-13,30,26,22,17,12,8,68,55,40,30.01,29.87,5,3,16,0.00
2013-11-14,44,34,26,24,19,14,70,55,42,29.89,29.77,4,2,13,0.00
2013-11-15,50,38,28,27,21,16,62,52,38,29.91,29.83,3,1,9,0.00
2013-11-16,50,42,36,32,29,23,78,61,46,30.03,29.90,2,1,7,0.00
2013-11-17,50,43,37,48,40,31,96,90,79,30.02,29.55,2,0,7,0.18
2013-11-18,56,51,42,55,45,30,96,79,63,29.58,29.26,4,2,17,0.40
2013-11-19,42,35,28,30,21,16,64,57,48,30.02,29.42,7,4,22,0.00
2013-11-20,34,27,24,16,14,12,64,57,40,30.27,30.02,5,3,16,0.00
2013-12-9,32,29,25,30,25,18,90,84,70,30.17,29.62,2,1,5,0.00
2013-12-10,34,29,19,30,25,14,91,86,80,29.67,29.52,1,0,4,0.00
2013-12-11,28,21,16,20,15,10,84,77,68,29.90,29.68,3,0,11,0.00
2013-12-12,21,15,10,17,6,2,82,66,47,29.96,29.78,5,1,14,0.00
2013-12-13,28,17,8,19,9,1,75,70,62,30.03,29.68,3,1,10,0.00
2013-12-14,17,11,8,7,2,-2,79,65,56,30.26,29.86,4,2,12,0.00
2013-12-15,31,22,12,26,17,6,85,79,70,29.89,29.20,6,3,18,0.00
2013-12-16,25,18,9,15,8,0,82,64,49,29.88,29.43,4,2,20,0.00
2013-12-17,16,8,2,10,1,-6,79,72,65,29.92,29.68,4,2,9,0.00
2013-12-18,29,21,13,21,14,8,82,76,67,29.77,29.63,4,1,14,0.00
2013-12-19,35,27,19,24,20,14,84,76,63,29.81,29.67,3,1,9,0.00
2013-12-20,40,34,29,34,29,24,88,82,68,29.81,29.64,4,1,8,0.03
2013-12-21,43,38,32,38,34,29,94,85,74,29.67,29.57,4,1,8,0.04
2013-12-22,50,44,39,49,43,37,96,95,93,29.66,29.44,4,1,13,0.02
2013-12-23,46,40,32,45,39,31,96,95,94,29.84,29.64,5,1,16,0.51
2013-12-24,33,29,20,30,19,7,93,67,52,29.94,29.76,6,3,20,0.00
2013-12-25,22,17,12,9,3,-2,67,54,44,30.18,29.94,7,2,24,0.00
2013-12-26,28,23,18,22,16,8,83,74,59,30.16,29.80,2,1,7,0.00
2013-12-27,32,25,18,22,18,13,82,73,58,29.97,29.89,3,1,10,0.01
2013-12-28,39,29,21,29,23,16,84,78,67,29.91,29.72,4,1,11,0.04
2013-12-29,36,33,29,33,30,25,95,87,76,29.76,29.23,5,2,12,0.97
2013-12-30,35,28,14,32,19,4,95,72,52,29.87,29.28,6,3,24,0.01
2013-12-31,23,16,10,13,7,2,77,66,57,29.86,29.70,5,2,19,0.00
2014-1-1,25,19,14,11,8,3,73,62,49,30.04,29.86,4,2,16,0.00
2014-1-2,19,12,5,12,6,-2,77,73,70,30.03,29.54,7,4,20,0.00